Location: Dietrichingen
(49.1894°N, 7.4150°E)
Time: 09:18:59
(UTC+00:00)

Daily predictions for brighter satellites

Satellite Brightness Start Highest point End
(mag) Time Altitude Azimuth Time Altitude Azimuth Time Altitude Azimuth
Landsat 7 4.4 19:58:52 10° SE 20:03:24 46° ENE 20:07:57 10° N
STARLINK-1072 4.3 20:00:26 10° WNW 20:04:23 43° SW 20:08:19 10° SE
STARLINK-1208 4.4 20:01:40 10° W 20:05:45 57° NNW 20:09:52 10° ENE
MOS 1 Rocket 4.1 20:01:38 10° N 20:05:55 52° WNW 20:10:05 10° SSW
STARLINK-1099 3.8 20:02:37 10° WNW 20:06:47 77° NNE 20:10:56 10° ESE
Cosmos 1461 3.4 20:03:44 10° S 20:07:37 39° ESE 20:11:41 10° NE
STARLINK-1225 3.6 20:03:50 10° WSW 20:07:58 74° SSE 20:12:07 10° ENE
STARLINK-1096 4.4 20:05:27 10° WNW 20:09:20 40° SW 20:13:13 10° SSE
Okean 3 3.6 20:05:41 10° S 20:10:00 87° W 20:14:19 10° N
STARLINK-1271 4.4 20:06:42 10° W 20:10:48 55° NNW 20:14:53 10° ENE
SAR-Lupe-2 4.5 20:07:35 10° NNE 20:10:50 31° E 20:14:04 10° SSE
Cosmos 2369 Rocket 4.0 20:08:39 10° SE 20:11:15 13° E 20:13:51 10° ENE
STARLINK-1104 3.7 20:07:35 10° WNW 20:11:46 80° NNE 20:15:54 10° ESE
STARLINK-1230 3.6 20:08:48 10° WSW 20:12:56 78° SSE 20:17:05 10° ENE
STARLINK-1212 4.3 20:10:01 10° WNW 20:12:57 38° N 20:15:55 10° ENE
STARLINK-1105 4.3 20:10:29 10° WNW 20:13:26 38° N 20:16:23 10° ENE
NOSS 2-2 (C) 4.4 20:11:15 10° SSE 20:13:57 21° ESE 20:16:52 10° ENE
STARLINK-1247 4.3 20:11:21 10° WNW 20:14:19 38° N 20:17:18 10° ENE
STARLINK-1227 4.3 20:11:51 10° WNW 20:14:48 38° N 20:17:45 10° ENE
STARLINK-1226 4.3 20:12:43 10° WNW 20:15:41 38° N 20:18:38 10° ENE
STARLINK-1154 4.5 20:11:42 10° W 20:15:47 54° N 20:19:52 10° ENE
STARLINK-1215 4.3 20:13:37 10° WNW 20:16:35 38° N 20:19:33 10° ENE
STARLINK-1144 3.7 20:12:34 10° WNW 20:16:45 84° NNE 20:20:54 10° ESE
SL-4 R/B 3.4 20:14:28 10° WNW 20:16:50 20° WSW 20:19:04 10° SSW
Cosmos 2221 Rocket 3.8 20:13:21 10° SSW 20:17:53 79° W 20:22:28 10° N
STARLINK-1243 3.6 20:13:47 10° WSW 20:17:55 83° SSE 20:22:05 10° ENE
STARLINK-1217 4.3 20:15:26 10° WNW 20:18:24 38° N 20:21:22 10° ENE
NOSS 3-2 (A) 4.4 20:11:46 10° NW 20:18:55 58° NE 20:27:03 10° ESE
STARLINK-1229 4.3 20:16:21 10° WNW 20:19:19 38° N 20:22:17 10° ENE
SPOT 5 3.9 20:14:45 10° SE 20:19:35 38° ENE 20:24:31 10° N
STARLINK-1270 4.3 20:17:15 10° WNW 20:20:13 39° N 20:23:11 10° ENE
STARLINK-1197 4.5 20:16:41 10° W 20:20:45 53° N 20:24:50 10° ENE
NOSS 8 (F) 4.1 20:17:57 10° SSW 20:21:07 59° SE 20:24:07 10° NE
Meteor 1-13 Rocket 4.3 20:15:55 10° S 20:21:32 80° E 20:27:19 10° NNE
STARLINK-1103 3.6 20:17:33 10° WNW 20:21:43 88° NNE 20:25:52 10° ESE
STARLINK-1189 4.3 20:19:03 10° WNW 20:22:01 39° N 20:24:59 10° ENE
STARLINK-1236 3.6 20:18:44 10° WSW 20:22:53 87° SSE 20:27:03 10° ENE
STARLINK-1188 4.3 20:19:58 10° WNW 20:22:56 39° N 20:25:54 10° ENE
STARLINK-1187 4.2 20:21:04 10° WNW 20:24:00 39° N 20:26:58 10° ENE
ERS-1 Rocket 3.5 20:19:56 10° SE 20:24:43 46° ENE 20:29:32 10° N
STARLINK-1191 4.3 20:22:25 10° WNW 20:25:22 39° N 20:28:19 10° ENE
STARLINK-1221 4.2 20:23:22 10° WNW 20:26:19 39° N 20:29:16 10° ENE
STARLINK-1101 3.6 20:22:31 10° WNW 20:26:42 88° SSW 20:30:51 10° ESE
STARLINK-1222 4.2 20:24:13 10° WNW 20:27:10 39° N 20:30:08 10° ENE
STARLINK-1214 4.2 20:25:07 10° WNW 20:28:05 39° N 20:31:02 10° ENE
Cosmos 1066 Rocket 4.4 20:24:03 10° SSE 20:29:13 49° E 20:34:23 10° NNE
USA 238 DEB 4.2 20:23:47 10° NW 20:30:54 63° NE 20:38:15 10° ESE
USA 238 4.2 20:23:54 10° NW 20:30:59 63° NE 20:38:21 10° ESE
USA 245 2.3 20:28:05 10° SSE 20:31:03 87° ENE 20:33:34 10° NNW
STARLINK-1102 3.6 20:27:31 10° WNW 20:31:41 84° SSW 20:35:48 10° ESE
STARLINK-1228 4.2 20:29:11 10° WNW 20:32:34 45° N 20:35:58 10° E
STARLINK-1269 3.7 20:28:42 10° WSW 20:32:51 85° NNW 20:37:01 10° ENE
Okean 1 Rocket 3.2 20:29:11 10° N 20:33:38 62° ENE 20:37:54 11° SSE
Cosmos 1805 4.1 20:30:12 10° N 20:33:53 37° ENE 20:37:07 12° SE
Cosmos 2278 Rocket 3.2 20:28:32 10° SW 20:34:03 52° NW 20:39:38 10° NNE
TSX-5 4.3 20:28:40 10° SSW 20:34:12 68° ESE 20:38:29 10° NE
Cosmos 1741 Rocket 4.3 20:29:05 10° NNW 20:34:16 67° WSW 20:39:26 10° S
Okean 2 Rocket 4.1 20:30:04 10° NNW 20:34:17 44° W 20:38:27 10° SSW
Resurs 01 Rocket 2.8 20:30:28 10° SSW 20:34:40 40° W 20:38:53 10° NNW
Nadezhda 4 Rocket 4.2 20:29:46 10° SSE 20:35:42 55° E 20:41:40 10° NNE
STARLINK-1235 4.1 20:32:50 10° WNW 20:35:57 43° N 20:39:04 10° E
STARLINK-1111 3.6 20:32:29 10° WNW 20:36:38 80° SSW 20:40:34 11° ESE
STARLINK-1200 3.7 20:33:40 10° WSW 20:37:49 81° NNW 20:41:59 10° ENE
MetOp-B 4.5 20:33:09 10° S 20:38:28 66° WSW 20:43:49 10° NNW
STARLINK-1073 3.6 20:37:29 10° WNW 20:41:38 75° SSW 20:45:22 13° ESE
SL-8 R/B 3.8 20:37:00 10° W 20:41:45 61° SSW 20:46:16 11° ESE
Cosmos 2279 Rocket 4.5 20:36:08 10° NNW 20:42:17 61° W 20:48:22 10° S
STARLINK-1192 3.8 20:38:40 10° WSW 20:42:49 78° NNW 20:46:59 10° ENE
ATLAS CENTAUR R/B 3.8 20:44:40 10° NNW 20:45:08 11° N 20:45:36 10° N
Cosmos 371 Rocket 4.1 20:41:09 10° SW 20:45:56 57° WNW 20:50:47 10° NNE
ATLAS 3B CENTAUR R/B 4.4 20:37:27 10° SW 20:46:12 20° S 20:50:57 12° SSE
STARLINK-1121 3.6 20:42:27 10° WNW 20:46:36 71° SSW 20:50:08 14° SE
SL-4 R/B 3.7 20:44:08 10° S 20:47:28 19° SE 20:50:50 10° E
STARLINK-1244 3.9 20:43:39 10° WSW 20:47:48 74° NNW 20:51:57 10° ENE
Cosmos 1110 Rocket 4.0 20:42:56 10° S 20:48:02 61° ESE 20:53:08 10° NNE
Terra 2.4 20:44:22 13° SE 20:48:23 46° ENE 20:52:56 10° N
Spot 2 Rocket 3.9 20:44:38 10° S 20:49:37 62° WSW 20:54:38 10° NNW
Abrixas rocket 2.9 20:47:29 10° W 20:50:11 32° SSW 20:51:50 18° SSE
SPOT 1/Viking Rocket 3.6 20:45:17 10° SSE 20:50:28 83° WSW 20:55:39 10° NNW
CARTOSAT-1 3.6 20:47:49 13° SSE 20:51:35 70° ENE 20:55:54 10° N
STARLINK-1106 3.7 20:47:28 10° WNW 20:51:35 67° SSW 20:54:56 15° SE
ERBS 4.4 20:49:09 10° W 20:52:08 30° NNW 20:55:08 10° NE
NOSS 8 (H) 4.0 20:49:08 10° SW 20:52:16 74° SE 20:55:20 10° NE
STARLINK-1138 3.9 20:48:39 10° WSW 20:52:47 71° NNW 20:56:56 10° ENE
STARLINK-1234 3.9 20:50:37 10° WNW 20:53:50 48° NNE 20:57:01 10° E
STARLINK-1112 3.7 20:52:25 10° WNW 20:56:32 63° SSW 20:59:41 16° SE
STARLINK-1143 4.0 20:53:37 10° WSW 20:57:45 68° NNW 21:01:54 10° ENE
STARLINK-1209 3.8 20:56:36 10° WNW 20:59:50 51° NNE 21:03:04 10° E
STARLINK-1128 3.8 20:57:24 10° WNW 21:01:29 59° SSW 21:04:28 18° SE
STARLINK-1241 4.1 20:58:39 10° W 21:02:47 66° NNW 21:06:55 10° ENE
Cosmos 1331 Rocket 3.9 20:59:40 10° SSW 21:04:48 76° ESE 21:10:01 10° NNE
Aureole 2 Rocket 2.9 21:02:35 10° SW 21:05:37 52° WNW 21:08:32 10° NNE
STARLINK-1113 3.9 21:02:24 10° WNW 21:06:28 55° SSW 21:09:15 19° SE
Cosmos 1733 3.4 21:03:16 10° N 21:07:03 56° ENE 21:09:32 20° SSE
STARLINK-1239 4.1 21:03:39 10° W 21:07:46 63° NNW 21:11:54 10° ENE
Cosmos 1437 Rocket 4.1 21:06:57 10° SW 21:10:31 38° WNW 21:14:09 10° N
STARLINK-1119 3.9 21:07:25 10° WNW 21:11:27 51° SSW 21:14:04 20° SE
STARLINK-1240 4.2 21:08:38 10° W 21:12:44 61° NNW 21:16:52 10° ENE
Cosmos 1378 3.0 21:09:41 13° S 21:12:56 84° E 21:16:40 10° N
Cosmos 1486 Rocket 4.4 21:09:08 10° NNW 21:14:22 54° ENE 21:18:13 18° SE
Cosmos 1302 Rocket 4.3 21:10:14 12° S 21:14:57 51° ESE 21:20:05 10° NNE
Cosmos 1271 Rocket 4.4 21:14:22 16° ESE 21:15:49 20° E 21:18:44 10° NE
USA 215 4.0 21:09:41 10° E 21:16:00 52° NNE 21:22:17 10° WNW
Cosmos 1544 Rocket 4.4 21:11:58 10° N 21:16:01 37° ENE 21:18:39 19° SE
STARLINK-1114 4.0 21:12:23 10° WNW 21:16:23 48° SW 21:18:49 21° SSE
Cosmos 1242 Rocket 3.8 21:15:26 20° SE 21:16:56 27° E 21:20:04 10° NE
Cosmos 304 Rocket 4.4 21:12:36 10° SW 21:17:19 59° WNW 21:22:05 10° NNE
STARLINK-1203 4.3 21:13:28 10° W 21:17:38 60° NNW 21:21:48 10° ENE
MTI 4.3 21:14:39 10° NNE 21:17:38 39° E 21:18:58 25° SSE
STARLINK-1216 4.2 21:13:37 10° W 21:17:43 59° NNW 21:21:50 10° ENE
Lacrosse 5 4.0 21:15:46 10° W 21:18:30 15° WSW 21:21:14 10° SSW
STARLINK-60 4.3 21:20:10 21° ESE 21:20:10 21° ESE 21:21:58 10° E
Cosmos 1092 Rocket 3.9 21:15:31 12° S 21:21:12 75° E 21:27:22 10° NNE
STARLINK-1130 (DARKSAT) 4.1 21:17:24 10° WNW 21:21:21 44° SW 21:23:37 22° SSE
NOSS 2-2 (D) 3.1 21:18:30 10° SW 21:22:05 88° SE 21:26:11 10° NE
STARLINK-1237 4.3 21:18:37 10° W 21:22:43 58° NNW 21:26:50 10° ENE
CENTAUR R/B 3.3 21:15:36 10° NW 21:23:30 74° NE 21:31:08 15° SE
Cosmos 1707 4.3 21:24:35 17° ESE 21:25:56 21° E 21:28:53 10° NE
STARLINK-1084 4.2 21:22:24 10° WNW 21:26:19 41° SW 21:28:24 23° SSE
ATLAS 3B R/B 3.6 21:20:11 10° NW 21:26:38 45° NE 21:33:16 10° ESE
SL-27 R/B 2.5 21:24:00 10° NNW 21:27:37 74° ENE 21:29:28 26° SSE
STARLINK-1202 4.3 21:23:38 10° W 21:27:43 56° NNW 21:31:49 10° ENE
NOSS 3-2 (C) 4.1 21:21:20 10° NW 21:28:46 83° NE 21:35:36 17° SE
Cosmos 1766 3.6 21:26:06 10° NNW 21:30:02 62° W 21:32:47 19° S
Cosmos 1726 4.1 21:28:23 10° NNE 21:31:02 18° ENE 21:32:50 14° ESE
STARLINK-1098 4.3 21:27:24 10° WNW 21:31:16 38° SW 21:33:11 24° SSE
Cosmos 1867 4.2 21:28:22 10° NNW 21:33:44 53° NE 21:38:07 15° ESE
COSMOS 2487 4.5 21:32:27 10° N 21:35:02 19° NE 21:37:03 13° E
STARLINK-1231 4.5 21:31:43 10° WNW 21:35:46 51° N 21:39:49 10° E
STARLINK-1123 4.4 21:32:24 10° WNW 21:36:12 36° SW 21:37:57 24° S
Cosmos 2195 Rocket 4.5 21:30:45 14° S 21:36:20 83° E 21:42:36 10° N
STARLINK-1246 4.4 21:33:40 10° W 21:37:44 53° N 21:41:49 10° ENE
Cosmos 1943 Rocket 2.1 21:32:36 10° SSW 21:38:08 80° ESE 21:43:47 10° NNE
NOSS 2-2 (E) 4.0 21:35:53 10° WSW 21:39:27 55° NW 21:43:41 10° NE
NOSS 3-4 (A) 4.1 21:36:32 20° SSE 21:39:41 33° ESE 21:45:11 10° NE
NOSS 3-4 (C) 4.1 21:36:40 20° SSE 21:39:48 33° ESE 21:45:17 10° NE
STARLINK-1232 4.4 21:36:43 10° WNW 21:40:47 51° N 21:44:50 10° E
Cosmos 2082 Rocket 4.4 21:39:03 10° WNW 21:42:21 16° W 21:45:38 10° SW
STARLINK-1224 4.5 21:38:39 10° W 21:42:43 52° N 21:46:47 10° ENE
SeaSat 1 3.5 21:38:42 10° NE 21:42:54 27° ESE 21:44:34 23° SE
EO 1 Del DPAF 4.3 21:40:04 10° NE 21:43:25 29° E 21:44:29 25° SE
STARLINK-1208 4.4 21:41:42 10° WNW 21:45:46 52° N 21:49:49 10° E
Cosmos 1975 Rocket 3.2 21:44:36 17° SSW 21:47:57 76° W 21:52:23 10° N
STARLINK-1212 3.0 21:45:57 10° WNW 21:49:05 70° NNE 21:50:47 24° E
STARLINK-1105 3.0 21:46:26 10° WNW 21:49:33 70° NNE 21:51:12 24° E
STARLINK-1247 3.0 21:47:18 10° WNW 21:50:26 71° NNE 21:52:06 24° E
STARLINK-1271 4.4 21:46:43 10° WNW 21:50:47 53° N 21:54:52 10° E
STARLINK-1227 3.0 21:47:48 10° WNW 21:50:55 71° NNE 21:52:32 25° E
BREEZE-M DEB (TANK) 3.5 21:36:59 10° WSW 21:51:26 77° SSE 21:55:13 10° E
Cosmos 292 Rocket 3.8 21:48:20 21° S 21:51:29 64° ESE 21:56:18 10° NNE
STARLINK-1226 3.0 21:48:39 10° WNW 21:51:46 72° NNE 21:53:23 26° ESE
BREEZE-M DEB (TANK) 2.8 21:48:14 10° W 21:52:15 88° NNE 21:56:04 10° E
STARLINK-1215 3.0 21:49:33 10° WNW 21:52:41 73° NNE 21:54:16 26° ESE
S3M 4.3 21:48:13 10° N 21:54:18 57° ENE 21:58:10 23° SSE
Cosmos 2369 Rocket 2.1 21:49:04 12° SSW 21:54:19 78° ESE 22:00:00 10° NNE
STARLINK-1217 2.9 21:51:22 10° WNW 21:54:30 75° NNE 21:56:00 27° ESE
STARLINK-1229 2.9 21:52:17 10° WNW 21:55:24 76° NNE 21:56:54 28° ESE
STARLINK-1154 4.3 21:51:42 10° WNW 21:55:47 55° N 21:59:52 10° E
STARLINK-1270 2.9 21:53:11 10° WNW 21:56:18 77° NNE 21:57:45 29° ESE
SPOT 5 4.2 21:53:31 14° SSW 21:57:37 36° W 22:02:35 10° NNW
Aureole 3 Rocket 4.3 21:51:52 10° N 21:58:00 88° E 22:03:53 21° S
STARLINK-1189 2.9 21:54:58 10° WNW 21:58:06 78° NNE 21:59:28 30° ESE
STARLINK-1188 2.9 21:55:52 10° WNW 21:59:01 79° NNE 22:00:22 31° ESE
STARLINK-1187 2.8 21:56:58 10° WNW 22:00:06 87° NNE 22:01:14 35° ESE
ATLAS CENTAUR R/B 2.4 21:59:35 27° SE 22:00:09 28° ESE 22:03:44 10° ENE
Cosmos 1340 Rocket 3.8 21:56:56 10° N 22:00:44 36° ENE 22:02:31 24° ESE
STARLINK-1197 4.3 21:56:40 10° WNW 22:00:46 56° NNE 22:04:50 10° E
STARLINK-1191 2.8 21:58:19 10° WNW 22:01:26 82° NNE 22:02:40 33° ESE
STARLINK-1221 2.8 21:59:16 10° WNW 22:02:23 83° NNE 22:03:34 34° ESE
Aureole 3 4.5 22:00:00 10° NNE 22:02:33 21° ENE 22:03:24 18° E
STARLINK-1222 2.8 22:00:07 10° WNW 22:03:14 84° NNE 22:04:23 35° ESE
STARLINK-1214 2.8 22:01:01 10° WNW 22:04:08 85° NNE 22:05:16 36° ESE
Thor Agena Rocket 3.7 21:59:05 10° NNE 22:04:19 59° ESE 22:07:12 26° S
Cosmos 1025 Rocket 3.2 22:02:58 31° SSE 22:04:49 57° E 22:09:03 10° NNE
Okean 2 4.4 22:02:00 14° SW 22:05:23 43° WNW 22:09:23 10° N
EXPRESS MD2 4.1 22:01:32 10° W 22:05:28 89° N 22:13:48 10° E
Cosmos 2026 Rocket 4.2 22:00:23 15° SSW 22:05:42 73° W 22:12:06 10° N
STARLINK-1198 4.2 22:01:39 10° WNW 22:05:45 58° NNE 22:09:51 10° E
ATLAS 2AS CENTAUR R/B 3.1 22:00:30 12° SSW 22:07:44 59° ESE 22:15:30 10° NE
BREEZE M DEB (TANK) 1.6 22:04:33 10° W 22:07:49 88° S 22:08:33 37° E
Cosmos 1553 Rocket 4.0 22:01:31 10° N 22:07:51 89° W 22:11:43 25° S
Cosmos 1656 Rocket 3.9 22:04:50 24° S 22:08:00 53° ESE 22:13:25 10° NE
Cosmos 1953 2.7 22:05:14 10° N 22:09:09 51° ENE 22:10:41 32° SE
BREEZE-M DEB (TANK) 4.2 21:55:51 10° WNW 22:09:25 64° SSW 22:11:56 26° SE
STARLINK-1228 3.0 22:06:29 10° WNW 22:09:58 74° SSW 22:11:08 39° SE
Cosmos 1470 2.8 22:06:23 10° NNW 22:10:15 70° W 22:11:51 33° S
STARLINK-1199 4.1 22:06:39 10° WNW 22:10:46 59° NNE 22:14:52 10° E
STARLINK-1235 2.8 22:09:12 10° WNW 22:12:26 73° SSW 22:13:12 48° SE
APEX 4.2 22:06:47 13° SSW 22:12:31 80° ESE 22:17:48 10° NNE
Cosmos 2292 Rocket 4.2 22:13:24 27° ESE 22:14:01 29° E 22:16:51 10° NNE
Cosmos 968 Rocket 3.6 22:09:47 10° NNW 22:14:55 65° WSW 22:17:31 28° S
STARLINK-1210 4.1 22:11:38 10° WNW 22:15:45 61° NNE 22:19:51 10° E
Cosmos 1455 Rocket 4.0 22:12:59 10° NNW 22:17:03 39° W 22:19:25 21° SSW
Cosmos 1655 Rocket 4.0 22:15:01 25° S 22:18:43 69° E 22:24:58 10° NNE
SL-4 R/B 2.3 22:20:18 25° NE 22:20:18 25° NE 22:21:54 10° N
STARLINK-1219 4.0 22:16:36 10° WNW 22:20:44 63° NNE 22:24:51 10° E
ATLAS 5 CENTAUR R/B 1.7 22:21:46 39° S 22:22:23 45° SE 22:24:40 10° ENE
Cosmos 1758 3.7 22:19:44 10° NNW 22:23:44 58° W 22:25:25 32° SSW
STARLINK-1211 4.0 22:21:36 10° WNW 22:25:45 66° NNE 22:29:41 11° E
Terra 3.5 22:23:14 14° SW 22:26:19 25° W 22:30:15 10° NW
SL-4 R/B 2.3 22:21:48 10° SW 22:26:34 64° SSE 22:31:22 10° ENE
Cosmos 2228 4.1 22:22:56 10° N 22:26:49 33° ENE 22:28:36 24° ESE
STARLINK-1234 3.1 22:27:00 10° WNW 22:30:11 52° SSW 22:30:16 52° SSW
STARLINK-1245 3.9 22:26:35 10° WNW 22:30:43 68° NNE 22:34:26 13° E
In-Cosmos 22 4.2 22:30:05 31° SSE 22:32:32 60° E 22:37:44 10° NNE
Cosmos 1503 Rocket 4.2 22:29:49 10° NNW 22:35:03 62° WSW 22:37:35 30° S
STARLINK-1233 3.8 22:31:32 10° WNW 22:35:42 71° NNE 22:39:12 14° ESE
STARLINK-1209 3.4 22:33:10 10° WNW 22:36:13 45° SW 22:36:13 45° SW
Cosmos 2266 Rocket 4.0 22:33:43 28° S 22:36:59 69° E 22:43:00 10° NNE
STARLINK-1204 3.7 22:36:32 10° WNW 22:40:41 74° NNE 22:43:59 16° ESE
SJ 16-02 3.9 22:40:13 10° NNE 22:42:45 15° NE 22:45:17 10° E
STARLINK-1238 3.7 22:41:32 10° WNW 22:45:42 77° NNE 22:48:47 17° ESE
Cosmos 1536 Rocket 3.9 22:45:44 29° SSW 22:47:48 60° WNW 22:52:08 10° N
Cosmos 1674 3.1 22:48:20 41° SE 22:49:07 49° E 22:52:47 10° NNE
STARLINK-1201 3.6 22:46:30 10° WNW 22:50:40 81° NNE 22:53:33 19° ESE
Cosmos 1271 Rocket 3.9 22:49:29 21° SW 22:51:34 37° WNW 22:55:15 10° N
Cosmos 1242 Rocket 4.5 22:49:25 14° WSW 22:51:46 25° WNW 22:54:52 10° NNW
STARLINK-60 3.1 22:52:21 12° WSW 22:55:13 73° NNW 22:58:24 10° ENE
Spot 4 4.4 22:53:29 29° SSW 22:55:34 47° W 23:00:17 10° NNW
STARLINK-1206 3.6 22:51:30 10° WNW 22:55:40 85° NNE 22:58:21 21° ESE
Cosmos 883 Rocket 4.4 22:49:35 10° N 22:55:45 86° W 22:58:57 30° S
COSMOS 2455 2.8 22:52:50 25° SSW 22:56:27 76° ESE 23:02:29 10° NE
Cosmos 2219 4.3 22:52:14 10° NNW 22:57:34 40° NE 23:02:18 13° ESE
STARLINK-1216 4.5 22:53:39 10° WNW 22:57:43 51° N 23:01:46 10° E
STARLINK-1203 4.5 22:53:44 10° WNW 22:57:51 52° N 23:01:58 10° E
USA 215 3.2 22:52:56 14° SE 22:58:48 85° SW 23:05:24 10° WNW
STARLINK-1205 3.5 22:56:28 10° WNW 23:00:38 89° NNE 23:03:07 23° ESE
Cosmos 1707 4.0 22:59:44 22° SW 23:01:36 35° WNW 23:05:12 10° N
Cosmos 2297 Rocket 3.5 22:56:34 10° NNW 23:01:48 36° NE 23:06:59 10° ESE
STARLINK-1237 4.4 22:58:39 10° WNW 23:02:43 52° N 23:06:47 10° E
Helios 1A 3.1 23:01:35 37° SE 23:03:08 66° ENE 23:07:18 10° N
Lacrosse 4 Rocket 4.2 23:02:15 10° N 23:05:12 17° NE 23:08:05 10° ENE
STARLINK-1218 3.5 23:01:28 10° WNW 23:05:38 87° SSW 23:07:55 26° ESE
Cosmos 1726 3.0 23:02:56 10° NNW 23:06:25 38° W 23:07:20 32° SW
Cosmos 1174 3.4 23:06:36 46° SW 23:07:29 79° NW 23:11:21 10° NE
STARLINK-1202 4.4 23:03:39 10° WNW 23:07:43 53° N 23:11:48 10° E
ALOS 2 2.7 23:07:47 39° SSW 23:09:16 63° WSW 23:13:39 10° NNW
Timation 2 Rocket 3.9 23:02:59 10° NNW 23:09:21 86° ENE 23:12:55 27° SSE
Cosmos 2058 Rocket 3.6 23:05:50 10° N 23:10:10 50° ENE 23:11:58 31° SE
COSMOS 2487 3.3 23:07:01 10° NW 23:10:13 35° WSW 23:10:32 34° WSW
STARLINK-1254 3.5 23:06:26 10° WNW 23:10:36 83° SSW 23:12:41 28° ESE
CENTAUR R/B 3.9 23:06:41 10° NW 23:14:02 38° WSW 23:18:17 24° SSW
STARLINK-1372 4.5 23:15:07 29° ESE 23:15:07 29° ESE 23:17:43 10° ENE
STARLINK-1231 3.5 23:11:24 10° WNW 23:15:34 79° SSW 23:17:27 31° SE
Meteor 2-5 Rocket 3.8 23:14:12 33° SSE 23:16:42 65° E 23:22:16 10° NNE
Cosmos 1867 4.5 23:12:17 10° NW 23:17:09 34° WSW 23:18:45 28° SSW
ATLAS 3B R/B 2.8 23:10:56 10° NW 23:17:35 59° WSW 23:21:09 29° S
STARLINK-1246 4.3 23:13:39 10° WNW 23:17:44 55° NNE 23:21:49 10° E
STARLINK-1378 4.3 23:18:28 32° ESE 23:18:28 32° ESE 23:21:14 10° ENE
SL-14 R/B 4.0 23:19:11 35° SE 23:20:01 40° E 23:23:38 10° NNE
Cosmos 1606 Rocket 3.6 23:15:54 10° NNW 23:20:13 70° W 23:21:36 41° SSW
FALCON 9 DEB 3.0 23:20:07 66° SSE 23:20:15 67° SSE 23:23:41 10° ENE
STARLINK-1232 3.5 23:16:24 10° WNW 23:20:33 74° SSW 23:22:15 34° SE
SeaSat 1 3.1 23:15:50 10° NNE 23:20:39 53° NW 23:24:20 17° SW
STARLINK-1379 4.2 23:21:51 34° ESE 23:21:51 34° ESE 23:24:46 10° ENE
Cosmos 1943 Rocket 4.3 23:18:07 10° W 23:22:34 24° NW 23:27:04 10° N
STARLINK-1329 4.1 23:23:14 36° ESE 23:23:14 36° ESE 23:26:15 10° ENE
STARLINK-1224 4.2 23:18:37 10° WNW 23:22:43 57° NNE 23:26:49 10° E
Cosmos 2098 Rocket 4.4 23:20:08 28° SSW 23:24:24 83° W 23:31:57 10° N
STARLINK-29 3.0 23:24:02 39° WSW 23:25:06 78° NNW 23:28:19 10° ENE
STARLINK-1208 3.5 23:21:22 10° WNW 23:25:30 70° SSW 23:27:00 37° SE
STARLINK-1362 4.0 23:26:40 38° SE 23:26:40 38° SE 23:29:50 10° ENE
STARLINK-1225 4.2 23:23:37 10° WNW 23:27:44 59° NNE 23:31:50 10° E
ATLAS CENTAUR R/B 2.0 23:25:47 10° NW 23:27:52 44° NE 23:31:32 10° ESE
STARLINK-1373 3.9 23:30:05 41° SE 23:30:05 41° SE 23:33:27 10° ENE
NOSS 3-4 (A) 3.9 23:24:16 10° WSW 23:30:12 61° NW 23:36:38 10° NE
NOSS 3-4 (C) 3.9 23:24:20 10° WSW 23:30:18 61° NW 23:36:45 10° NE
STARLINK-1271 3.5 23:26:23 10° WNW 23:30:30 66° SSW 23:31:48 40° SE
RESURS DK-1 2.2 23:29:48 44° SSW 23:31:02 82° ESE 23:35:12 10° NNE
STARLINK-1365 3.8 23:31:12 44° SE 23:31:12 44° SE 23:34:43 10° ENE
STARLINK-1230 4.1 23:28:36 10° WNW 23:32:43 60° NNE 23:36:49 10° E
STARLINK-1390 3.7 23:33:35 44° SE 23:33:35 44° SE 23:37:04 10° ENE
Cosmos 2315 Rocket 4.3 23:27:49 10° NNW 23:33:52 57° W 23:36:59 29° SSW
Cosmos 2084 3.5 23:33:37 41° SSW 23:35:02 69° SE 23:39:30 10° NE
STARLINK-1154 3.6 23:31:22 10° WNW 23:35:28 61° SSW 23:36:35 43° SSE
BREEZE-M R/B 3.8 23:31:44 19° SW 23:36:16 45° SSE 23:39:59 10° E
Cosmos 1626 2.2 23:36:00 49° SSE 23:36:47 65° E 23:40:28 10° NNE
STARLINK-1243 4.1 23:33:36 10° WNW 23:37:43 63° NNE 23:41:50 10° E
Cosmos 2227 Rocket 2.8 23:33:17 10° NNW 23:38:53 54° NE 23:43:29 15° SE
ATLAS CENTAUR R/B 2.3 23:35:42 16° WSW 23:38:56 45° NW 23:42:52 10° NNE
Cosmos 2369 Rocket 4.2 23:34:25 10° W 23:38:59 24° NW 23:43:35 10° NNE
Okean 1-7 Rocket 3.6 23:37:39 40° S 23:39:12 78° E 23:43:46 10° NNE
STARLINK-1197 3.6 23:36:20 10° WNW 23:40:25 57° SSW 23:41:21 45° SSE
Cosmos 1908 4.2 23:38:12 10° NNW 23:41:41 34° W 23:42:29 31° WSW
CZ-4 R/B 4.1 23:37:24 10° NNE 23:42:06 53° E 23:43:50 34° SSE
STARLINK-1236 4.0 23:38:34 10° WNW 23:42:42 65° NNE 23:46:49 10° E
Nadezhda 2 Rocket 4.4 23:39:44 31° SSW 23:42:53 85° W 23:49:05 10° N
Cosmos 1953 4.5 23:42:45 10° NW 23:45:07 15° W 23:46:22 14° WSW
STARLINK-1198 3.7 23:41:19 10° WNW 23:45:22 54° SSW 23:46:07 46° S
Landsat 4 3.8 23:46:17 10° N 23:50:00 67° WNW 23:51:00 44° SW
STARLINK-1199 3.7 23:46:20 10° WNW 23:50:22 50° SSW 23:50:55 46° S
STARLINK-1269 3.9 23:48:32 10° WNW 23:52:41 70° NNE 23:56:50 10° ESE
Meteor 2-21 Rocket 4.4 23:50:06 31° S 23:53:17 83° E 23:59:31 10° NNE
STARLINK-1210 3.8 23:51:19 10° WNW 23:55:18 47° SW 23:55:42 45° SSW
